TimeEST,TemperatureF,Dew PointF,Humidity,Sea Level PressureIn,VisibilityMPH,Wind Direction,Wind SpeedMPH,Gust SpeedMPH,PrecipitationIn,Events,Conditions,WindDirDegrees,DateUTC
12:50 AM,30.2,30.2,100,29.91,3.0,North,6.9,-,0.01,Rain,Light Freezing Rain,10,2012-12-18 05:50:00
12:54 AM,30.9,30.0,96,29.93,3.0,North,5.8,-,0.01,Rain,Light Freezing Rain,10,2012-12-18 05:54:00
1:11 AM,30.2,30.2,100,29.90,3.0,North,6.9,-,0.00,Rain,Light Freezing Rain,10,2012-12-18 06:11:00
1:25 AM,30.2,30.2,100,29.88,3.0,North,6.9,-,N/A,Rain,Light Freezing Rain,10,2012-12-18 06:25:00
1:54 AM,32.0,30.9,96,29.89,3.0,North,8.1,-,N/A,Rain,Light Freezing Rain,360,2012-12-18 06:54:00
2:21 AM,32.0,30.2,93,29.86,4.0,North,5.8,-,0.00,,Overcast,360,2012-12-18 07:21:00
2:38 AM,32.0,30.2,93,29.85,2.5,North,5.8,-,0.00,,Overcast,10,2012-12-18 07:38:00
2:54 AM,32.0,30.9,96,29.86,2.5,North,6.9,-,0.00,,Overcast,360,2012-12-18 07:54:00
3:50 AM,32.0,32.0,100,29.80,2.5,North,6.9,-,0.05,,Overcast,360,2012-12-18 08:50:00
3:54 AM,32.0,32.0,100,29.82,2.5,North,6.9,-,0.05,,Overcast,360,2012-12-18 08:54:00
4:03 AM,33.8,32.0,93,29.79,3.0,North,8.1,-,0.01,Rain,Light Rain,360,2012-12-18 09:03:00
4:13 AM,33.8,32.0,93,29.78,2.5,North,6.9,-,0.02,Rain,Light Rain,360,2012-12-18 09:13:00
4:26 AM,33.8,32.0,93,29.78,2.5,North,6.9,-,0.03,Rain,Light Rain,360,2012-12-18 09:26:00
4:34 AM,33.8,32.0,93,29.78,3.0,North,6.9,-,0.04,Rain,Light Rain,360,2012-12-18 09:34:00
4:38 AM,33.8,32.0,93,29.77,3.0,North,6.9,-,0.04,Rain,Light Freezing Rain,360,2012-12-18 09:38:00
4:54 AM,33.1,32.0,96,29.79,2.5,North,6.9,-,0.06,Rain,Light Freezing Rain,360,2012-12-18 09:54:00
5:02 AM,33.8,32.0,93,29.77,3.0,North,6.9,-,0.00,Rain,Light Freezing Rain,350,2012-12-18 10:02:00
5:33 AM,33.8,32.0,93,29.75,3.0,North,6.9,-,0.05,Rain,Light Freezing Rain,360,2012-12-18 10:33:00
5:39 AM,33.8,32.0,93,29.75,3.0,North,5.8,-,0.06,Rain,Light Freezing Rain,10,2012-12-18 10:39:00
6:04 AM,33.8,32.0,93,29.73,4.0,North,9.2,-,0.01,Rain,Light Rain,360,2012-12-18 11:04:00
7:54 AM,34.0,33.1,96,29.70,2.5,North,6.9,-,0.06,Rain,Light Rain,350,2012-12-18 12:54:00
8:10 AM,33.8,33.8,100,29.68,2.0,North,6.9,-,0.01,Rain,Light Rain,350,2012-12-18 13:10:00
8:17 AM,33.8,33.8,100,29.68,1.8,North,6.9,-,0.01,Rain,Light Rain,350,2012-12-18 13:17:00
8:28 AM,33.8,33.8,100,29.67,1.8,North,6.9,-,0.02,Rain,Light Rain,350,2012-12-18 13:28:00
8:35 AM,33.8,33.8,100,29.67,2.0,North,6.9,-,0.03,Rain,Light Rain,350,2012-12-18 13:35:00
8:54 AM,34.0,34.0,100,29.68,2.0,North,5.8,-,0.05,Rain,Light Rain,360,2012-12-18 13:54:00
9:01 AM,35.6,33.8,93,29.66,2.0,North,6.9,-,0.00,Rain,Light Rain,350,2012-12-18 14:01:00
9:23 AM,33.8,33.8,100,29.66,3.0,North,4.6,-,0.03,Rain,Light Rain,350,2012-12-18 14:23:00
9:54 AM,34.0,33.1,96,29.66,4.0,North,8.1,-,0.09,Rain,Light Rain,350,2012-12-18 14:54:00
10:19 AM,33.8,33.8,100,29.63,6.0,North,9.2,-,0.02,Rain,Light Rain,350,2012-12-18 15:19:00
10:54 AM,34.0,33.1,96,29.63,3.0,North,6.9,-,0.07,Rain,Light Rain,350,2012-12-18 15:54:00
11:14 AM,35.6,33.8,93,29.60,4.0,North,6.9,-,0.01,Rain,Light Rain,360,2012-12-18 16:14:00
11:26 AM,35.6,33.8,93,29.60,3.0,North,6.9,-,0.02,Rain,Light Rain,10,2012-12-18 16:26:00
11:35 AM,35.6,33.8,93,29.59,2.0,North,6.9,-,0.02,Rain,Light Rain,360,2012-12-18 16:35:00
11:43 AM,35.6,33.8,93,29.59,1.8,North,8.1,-,0.03,Rain,Light Rain,10,2012-12-18 16:43:00
11:54 AM,35.1,34.0,96,29.60,1.2,North,6.9,-,0.04,Rain,Light Rain,360,2012-12-18 16:54:00
11:58 AM,35.6,33.8,93,29.58,1.5,North,8.1,-,0.00,Rain,Light Rain,360,2012-12-18 16:58:00
12:19 PM,35.6,33.8,93,29.56,1.8,North,9.2,-,0.01,Rain,Light Rain,10,2012-12-18 17:19:00
12:41 PM,35.6,33.8,93,29.55,2.0,North,6.9,-,0.03,Rain,Light Rain,360,2012-12-18 17:41:00
12:49 PM,35.6,33.8,93,29.54,2.5,North,8.1,-,0.03,Rain,Light Rain,360,2012-12-18 17:49:00
12:54 PM,36.0,35.1,97,29.56,3.0,North,6.9,-,0.03,Rain,Light Rain,360,2012-12-18 17:54:00
1:05 PM,35.6,35.6,100,29.54,2.0,North,10.4,-,0.01,Rain,Light Rain,10,2012-12-18 18:05:00
1:08 PM,35.6,35.6,100,29.53,1.8,North,9.2,-,0.02,Rain,Light Rain,360,2012-12-18 18:08:00
1:35 PM,35.6,35.6,100,29.52,2.0,North,10.4,-,0.03,Rain,Light Rain,360,2012-12-18 18:35:00
1:42 PM,35.6,35.6,100,29.52,2.0,North,9.2,-,0.03,Rain,Light Rain,360,2012-12-18 18:42:00
1:54 PM,36.0,35.1,97,29.54,2.0,North,8.1,-,0.04,Rain,Light Rain,360,2012-12-18 18:54:00
2:06 PM,35.6,35.6,100,29.52,1.8,North,8.1,-,0.00,Rain,Light Rain,360,2012-12-18 19:06:00
2:35 PM,35.6,35.6,100,29.51,2.5,North,9.2,-,0.02,Rain,Light Rain,360,2012-12-18 19:35:00
2:54 PM,36.0,35.1,97,29.53,2.5,North,6.9,-,0.02,Rain,Light Rain,350,2012-12-18 19:54:00
3:54 PM,36.0,36.0,100,29.52,1.5,North,8.1,-,0.03,Rain,Light Rain,350,2012-12-18 20:54:00
4:07 PM,35.6,35.6,100,29.50,2.0,North,8.1,-,0.00,Rain,Light Rain,360,2012-12-18 21:07:00
4:21 PM,37.4,35.6,93,29.50,3.0,North,8.1,-,0.00,Rain,Light Rain,10,2012-12-18 21:21:00
4:29 PM,35.6,35.6,100,29.49,3.0,North,9.2,-,0.01,Rain,Light Rain,10,2012-12-18 21:29:00
4:44 PM,35.6,35.6,100,29.49,2.5,North,10.4,-,0.01,Rain,Light Rain,10,2012-12-18 21:44:00
4:51 PM,35.6,35.6,100,29.49,3.0,North,8.1,-,0.01,Rain,Light Rain,10,2012-12-18 21:51:00
4:54 PM,36.0,35.1,97,29.50,3.0,North,10.4,-,0.01,Rain,Light Rain,10,2012-12-18 21:54:00
5:03 PM,35.6,35.6,100,29.48,3.0,North,6.9,-,0.00,Rain,Light Rain,10,2012-12-18 22:03:00
5:40 PM,35.6,35.6,100,29.48,2.5,North,10.4,-,0.02,Rain,Light Rain,360,2012-12-18 22:40:00
5:50 PM,35.6,35.6,100,29.48,3.0,North,8.1,-,0.02,Rain,Light Rain,10,2012-12-18 22:50:00
5:54 PM,36.0,35.1,97,29.49,3.0,North,9.2,-,0.02,Rain,Light Rain,360,2012-12-18 22:54:00
6:11 PM,35.6,35.6,100,29.48,3.0,North,8.1,-,0.00,Rain,Light Rain,10,2012-12-18 23:11:00
6:54 PM,36.0,35.1,97,29.49,4.0,North,8.1,-,0.01,,Overcast,360,2012-12-18 23:54:00
7:54 PM,36.0,35.1,97,29.49,4.0,North,6.9,-,0.03,Rain,Light Rain,350,2012-12-19 00:54:00
8:54 PM,36.0,35.1,97,29.47,4.0,North,6.9,-,0.03,Rain,Light Rain,360,2012-12-19 01:54:00
9:54 PM,36.0,35.1,97,29.47,3.0,North,9.2,-,0.01,Rain,Light Rain,360,2012-12-19 02:54:00
10:38 PM,35.6,35.6,100,29.45,4.0,North,9.2,-,0.01,Rain,Light Rain,360,2012-12-19 03:38:00
10:54 PM,36.0,35.1,97,29.47,4.0,NNW,9.2,-,0.01,Rain,Light Rain,340,2012-12-19 03:54:00
11:54 PM,36.0,35.1,97,29.45,4.0,North,5.8,-,0.01,Rain,Light Rain,350,2012-12-19 04:54:00